Donegal Airport, Ireland

7:04 AM GMT on February 18, 2018 (GMT +0000)
Donegal

Weather History for EIDL - April, 2014

Change the Weather History Date:

Thursday, April 3, 2014

  Actual Average (EGAE) Record (EGAE)
Temperature  
Mean Temperature 54 °F -  
Max Temperature 59 °F 51 °F 59 °F (1999)
Min Temperature 50 °F 41 °F 33 °F (2013)
Degree Days  
Heating Degree Days 10    
Growing Degree Days 4 (Base 50)    
Moisture  
Dew Point 47 °F    
Average Humidity 72    
Maximum Humidity 87    
Minimum Humidity 63    
Precipitation  
Precipitation 0.00 in - - ()
Sea Level Pressure  
Sea Level Pressure 29.52 in    
Wind  
Wind Speed 14 mph ()    
Max Wind Speed 21 mph    
Max Gust Speed -    
Visibility 6.2 miles    
Events      
Averages and records for this station are not official NWS values.
T = Trace of Precipitation, MM = Missing Value Source: Averaged Metar Reports

Daily Weather History Graph

Daily Weather History Graph

Search for Another Location

Airport or City:

Trip Planner

Search our weather history database for the weather conditions in past years. The results will help you decide how hot, cold, wet, or windy it might be!

Date:

Astronomy

Apr. 03, 2014 Rise Set
Actual Time 7:00 AM IST 8:14 PM IST
Civil Twilight 6:23 AM IST 8:51 PM IST
Nautical Twilight 5:37 AM IST 9:37 PM IST
Astronomical Twilight 4:47 AM IST 10:28 PM IST
Moon 8:47 AM IST (4/3) No Moon Set
Length of Visible Light 14h 28m
Length of Day
13h 13m
Waxing Crescent, 15% of the Moon is Illuminated
Apr 3
Waxing Crescent
Apr 7
First Quarter
Apr 15
Full
Apr 22
Last Quarter
Apr 29
New

Hourly Weather History & Observations

Time (IST) Temp. Dew Point Humidity Pressure Visibility Wind Dir Wind Speed Gust Speed Precip Events Conditions
7:30 AM 50.0 °F 46.4 °F 87% 29.50 in - SSE 17.3 mph - N/A   Clear
8:00 AM 50.0 °F 46.4 °F 87% 29.50 in - SSE 16.1 mph - N/A   Clear
8:30 AM 50.0 °F 46.4 °F 87% 29.50 in - SSE 17.3 mph - N/A   Clear
9:00 AM 51.8 °F 46.4 °F 82% 29.50 in - South 11.5 mph - N/A   Clear
9:30 AM 51.8 °F 46.4 °F 82% 29.50 in - SSE 12.7 mph - N/A   Clear
10:00 AM 53.6 °F 46.4 °F 77% 29.50 in 6.2 mi SSE 13.8 mph - N/A   Partly Cloudy
10:30 AM 53.6 °F 48.2 °F 82% 29.50 in 6.2 mi SE 12.7 mph - N/A   Overcast
11:00 AM 53.6 °F 46.4 °F 77% 29.50 in 6.2 mi SSE 17.3 mph - N/A   Scattered Clouds
11:30 AM 55.4 °F 46.4 °F 72% 29.50 in - SSE 20.7 mph - N/A   Clear
12:00 PM 55.4 °F 46.4 °F 72% 29.53 in - SSE 20.7 mph - N/A   Clear
12:30 PM 57.2 °F 46.4 °F 67% 29.53 in - SSE 18.4 mph - N/A   Clear
1:00 PM 57.2 °F 46.4 °F 67% 29.53 in 6.2 mi SSE 19.6 mph - N/A   Mostly Cloudy
1:30 PM 59.0 °F 46.4 °F 63% 29.53 in 6.2 mi SSE 19.6 mph - N/A   Mostly Cloudy
2:00 PM 59.0 °F 46.4 °F 63% 29.53 in 6.2 mi SSE 16.1 mph - N/A   Mostly Cloudy
2:30 PM 57.2 °F 46.4 °F 67% 29.53 in 6.2 mi SSE 18.4 mph - N/A   Overcast
3:00 PM 57.2 °F 46.4 °F 67% 29.53 in 6.2 mi South 16.1 mph - N/A   Overcast
3:30 PM 59.0 °F 46.4 °F 63% 29.53 in 6.2 mi South 15.0 mph - N/A   Mostly Cloudy
4:00 PM 59.0 °F 48.2 °F 67% 29.53 in 6.2 mi SSE 17.3 mph - N/A   Mostly Cloudy
4:30 PM 59.0 °F 46.4 °F 63% 29.53 in 6.2 mi South 15.0 mph - N/A   Mostly Cloudy
5:00 PM 59.0 °F 46.4 °F 63% 29.56 in 6.2 mi South 13.8 mph - N/A   Mostly Cloudy
5:30 PM 57.2 °F 46.4 °F 67% 29.56 in 6.2 mi SSE 13.8 mph - N/A   Overcast
6:00 PM 57.2 °F 46.4 °F 67% 29.56 in - South 11.5 mph - N/A   Clear
6:30 PM 57.2 °F 46.4 °F 67% 29.56 in - South 12.7 mph - N/A   Clear
7:00 PM 59.0 °F 46.4 °F 63% 29.56 in - South 13.8 mph - N/A   Clear